GW1014 Weather Reports


time (UTC)temp
C
wind
direction
speed
KPH
gust
KPH
rain 1hr
cm
rain 24hr
cm
rain mn
cm
humidity
%
barometer
mb
20260503005950 10 13 0.0 0.0 0.00 0.00 0.00 83 1013.9
20260503005447 10 14 0.0 0.0 0.00 0.00 0.00 82 1013.8
20260503004944 10 10 0.0 0.0 0.00 0.00 0.00 80 1013.8
20260503004441 10 11 0.0 0.0 0.00 0.00 0.00 81 1013.6
20260503003939 11 11 0.0 0.0 0.00 0.00 0.00 79 1013.6
20260503003435 11 329 0.0 0.0 0.00 0.00 0.00 80 1013.5
20260503002932 11 329 0.0 0.0 0.00 0.00 0.00 81 1013.5
20260503002429 11 329 0.0 0.0 0.00 0.00 0.00 81 1013.3
20260503001926 11 329 0.0 0.0 0.00 0.00 0.00 78 1013.3
20260503001422 11 329 0.0 0.0 0.00 0.00 0.00 78 1013.2
20260503000920 11 329 0.0 0.0 0.00 0.00 0.00 77 1013.1
20260503000417 11 329 0.0 0.0 0.00 0.00 0.00 77 1013.2
20260502235914 11 329 0.0 0.0 0.00 0.00 0.00 76 1013.2
20260502235411 11 329 0.0 0.0 0.00 0.00 0.00 75 1013.1
20260502234908 12 329 0.0 0.0 0.00 0.00 0.00 76 1013.1
20260502234405 12 329 0.0 0.0 0.00 0.00 0.00 73 1012.7
20260502233902 12 329 0.0 0.0 0.00 0.00 0.00 73 1012.7
20260502233357 12 0 0.0 0.0 0.00 0.00 0.00 72 1012.7
20260502232855 12 0 0.0 0.0 0.00 0.00 0.00 73 1012.6
20260502232351 12 0 0.0 0.0 0.00 0.00 0.00 71 1012.5
20260502231848 12 0 0.0 0.0 0.00 0.00 0.00 70 1012.4
20260502231346 12 0 0.0 0.0 0.00 0.00 0.00 69 1012.4
20260502230843 12 0 0.0 0.0 0.00 0.00 0.00 66 1012.5
20260502230341 13 0 0.0 0.0 0.00 0.00 0.00 65 1012.4
20260502225838 13 0 0.0 0.0 0.00 0.00 0.00 62 1012.5
20260502225334 13 0 0.0 0.0 0.00 0.00 0.00 61 1012.6
20260502224831 13 0 0.0 0.0 0.00 0.00 0.00 63 1012.2
20260502224327 13 0 0.0 0.0 0.00 0.00 0.00 60 1012.2
20260502223825 13 0 0.0 0.0 0.00 0.00 0.00 55 1012.3
20260502223323 14 0 0.0 0.0 0.00 0.00 0.00 55 1012.1
20260502222820 14 0 0.0 0.0 0.00 0.00 0.00 50 1012.1
20260502222318 14 0 0.0 0.0 0.00 0.00 0.00 51 1011.9
20260502221813 15 0 0.0 0.0 0.00 0.00 0.00 51 1011.9
20260502221310 15 356 0.0 0.0 0.00 0.00 0.00 48 1011.9
20260502220807 14 25 0.0 0.0 0.00 0.00 0.00 46 1011.9
20260502220302 14 350 0.0 0.0 0.00 0.00 0.00 48 1011.5
20260502215759 14 350 0.0 0.0 0.00 0.00 0.00 52 1011.7
20260502215257 14 288 0.0 0.0 0.00 0.00 0.00 46 1011.6
20260502214754 14 66 0.0 0.0 0.00 0.00 0.00 48 1011.6
20260502214250 15 101 0.0 0.0 0.00 0.00 0.00 48 1011.5
20260502213748 15 22 0.0 3.2 0.00 0.00 0.00 46 1011.6
20260502213245 15 351 0.0 3.2 0.00 0.00 0.00 48 1011.7
20260502212744 15 24 0.0 0.0 0.00 0.00 0.00 47 1011.7
20260502212242 15 235 0.0 1.6 0.00 0.00 0.00 45 1011.5
20260502211737 15 346 0.0 1.6 0.00 0.00 0.00 47 1011.7
20260502211234 15 350 0.0 0.0 0.00 0.00 0.00 49 1011.7
20260502210731 15 272 0.0 0.0 0.00 0.00 0.00 49 1011.7
20260502210229 15 325 0.0 4.8 0.00 0.00 0.00 45 1011.7
20260502205726 15 255 1.6 3.2 0.00 0.00 0.00 50 1011.7
20260502205222 15 118 0.0 0.0 0.00 0.00 0.00 49 1011.5
20260502204719 15 263 0.0 3.2 0.00 0.00 0.00 49 1011.7
20260502204217 15 263 0.0 0.0 0.00 0.00 0.00 50 1011.8
20260502203714 14 57 0.0 1.6 0.00 0.00 0.00 49 1011.9
20260502203212 14 299 0.0 0.0 0.00 0.00 0.00 48 1011.9
20260502202706 14 335 0.0 0.0 0.00 0.00 0.00 51 1011.9
20260502202205 14 344 0.0 0.0 0.00 0.00 0.00 47 1011.9
20260502201702 13 354 0.0 0.0 0.00 0.00 0.00 48 1012.1
20260502201158 14 295 0.0 0.0 0.00 0.00 0.00 50 1012.0
20260502200654 14 322 0.0 0.0 0.00 0.00 0.00 49 1012.1
20260502200150 14 345 0.0 0.0 0.00 0.00 0.00 50 1012.3
20260502195649 13 5 0.0 0.0 0.00 0.00 0.00 50
20260502195145 13 10 0.0 0.0 0.00 0.00 0.00 51
20260502194641 13 353 0.0 0.0 0.00 0.00 0.00 48
20260502194138 13 46 0.0 0.0 0.00 0.00 0.00 48 1012.7
20260502193634 13 24 0.0 0.0 0.00 0.00 0.00 51 1012.7
20260502193132 14 347 0.0 0.0 0.00 0.00 0.00 49
20260502192627 13 53 0.0 0.0 0.00 0.00 0.00 46 1012.8
20260502192125 13 9 0.0 0.0 0.00 0.00 0.00 46 1012.8
20260502191621 13 350 0.0 0.0 0.00 0.00 0.00 50 1012.9
20260502191119 13 11 0.0 0.0 0.00 0.00 0.00 49 1012.7
20260502190616 13 353 0.0 1.6 0.00 0.00 0.00 50 1012.9
20260502190114 13 350 0.0 0.0 0.00 0.00 0.00 51 1012.9
20260502185608 13 4 0.0 0.0 0.00 0.00 0.00 48 1013.2
20260502185105 12 67 0.0 1.6 0.00 0.00 0.00 50 1013.3
20260502184601 12 65 0.0 4.8 0.00 0.00 0.00 52 1013.3
20260502184057 12 327 0.0 0.0 0.00 0.00 0.00 52 1013.2
20260502183554 12 334 0.0 1.6 0.00 0.00 0.00 51 1013.2
20260502183050 12 80 3.2 4.8 0.00 0.00 0.00 51 1039.5
20260502182545 12 88 1.6 3.2 0.00 0.00 0.00 50 1013.3
20260502182041 12 336 0.0 0.0 0.00 0.00 0.00 52 1013.2
20260502181539 12 62 0.0 3.2 0.00 0.00 0.00 52 1013.3
20260502181038 12 43 0.0 0.0 0.00 0.00 0.00 52 1013.2
20260502180535 12 346 0.0 6.4 0.00 0.00 0.00 54 1013.2
20260502170459 12 323 0.0 6.4 0.00 0.00 0.00 55 1013.9
20260502163943 11 0 0.0 0.0 0.00 0.00 0.00 57 1014.2
20260502163439 11 10 0.0 1.6 0.00 0.00 0.00 56 1014.5
20260502162937 11 36 0.0 0.0 0.00 0.00 0.00 57 1014.6
20260502162434 11 25 0.0 0.0 0.00 0.00 0.00 55 1014.7
20260502161931 11 25 0.0 0.0 0.00 0.00 0.00 55 1014.8
20260502161426 11 353 0.0 0.0 0.00 0.00 0.00 58 1014.7
20260502160925 11 18 0.0 1.6 0.00 0.00 0.00 55 1014.8
20260502160422 11 7 0.0 0.0 0.00 0.00 0.00 61 1014.9
20260502151901 11 47 0.0 3.2 0.00 0.00 0.00 57 1014.9
20260502151357 11 49 1.6 1.6 0.00 0.00 0.00 58 1014.9
20260502150855 11 247 3.2 3.2 0.00 0.00 0.00 60 1015.0
20260502150351 11 341 0.0 0.0 0.00 0.00 0.00 60 1014.8
20260502130739 11 23 0.0 0.0 0.00 0.00 0.00 71 1014.5
20260502130237 11 24 0.0 0.0 0.00 0.00 0.00 73 1014.4
20260502123723 11 24 0.0 0.0 0.00 0.00 0.00 74 1013.7
20260502123219 11 355 0.0 0.0 0.00 0.00 0.00 74
20260502122716 11 32 0.0 0.0 0.00 0.00 0.00 74 1014.0
20260502122212 11 26 0.0 0.0 0.00 0.00 0.00 74 1014.0
20260502121711 11 38 0.0 0.0 0.00 0.00 0.00 74
20260502121208 11 356 0.0 0.0 0.00 0.00 0.00 75 1013.8
20260502120704 11 39 0.0 3.2 0.00 0.00 0.00 74 1013.8
20260502120201 11 17 0.0 4.8 0.00 0.00 0.00 76
20260502115659 11 357 0.0 0.0 0.00 0.00 0.00 75
20260502115155 11 29 0.0 0.0 0.00 0.00 0.00 77
20260502114651 11 33 0.0 0.0 0.00 0.00 0.00 78 1013.5
20260502114149 11 14 0.0 0.0 0.00 0.00 0.00 78 1013.5
20260502113646 11 38 0.0 0.0 0.00 0.00 0.00 78
20260502113144 11 8 0.0 0.0 0.00 0.00 0.00 79 1013.5
20260502112642 11 9 0.0 0.0 0.00 0.00 0.00 78 1013.5
20260502112139 11 28 0.0 0.0 0.00 0.00 0.00 77 1013.6
20260502111636 11 346 0.0 0.0 0.00 0.00 0.00 78 1013.5
20260502111134 11 359 0.0 0.0 0.00 0.00 0.00 79 1013.6
20260502110631 11 4 0.0 0.0 0.00 0.00 0.00 79 1013.6
20260502110128 11 355 0.0 0.0 0.00 0.00 0.00 79 1013.5
20260502105626 11 357 0.0 0.0 0.00 0.00 0.00 81 1013.2
20260502105123 11 14 0.0 0.0 0.00 0.00 0.00 82 1013.5
20260502104620 10 358 0.0 0.0 0.00 0.00 0.00 83 1013.4
20260502104117 10 358 0.0 0.0 0.00 0.00 0.00 84 1013.5
20260502103615 10 358 0.0 0.0 0.00 0.00 0.00 83 1013.4
20260502103113 10 354 0.0 0.0 0.00 0.00 0.00 85 1013.7
20260502102609 10 354 0.0 0.0 0.00 0.00 0.00 85 1013.5
20260502102106 11 354 0.0 0.0 0.00 0.00 0.00 85 1013.5
20260502101604 10 354 0.0 0.0 0.00 0.00 0.00 84 1013.9
20260502101102 10 354 0.0 0.0 0.00 0.00 0.00 84 1013.7
20260502100600 10 354 0.0 0.0 0.00 0.00 0.00 87 1013.5
20260502091032 11 344 0.0 0.0 0.00 0.00 0.00 86 1013.4
20260502090529 11 359 0.0 0.0 0.00 0.00 0.00 87 1013.4
20260502071424 10 348 0.0 0.0 0.00 0.00 0.00 94
20260502070922 11 348 0.0 0.0 0.00 0.00 0.00 93
20260502070420 11 348 0.0 0.0 0.00 0.00 0.00 93
20260502065918 11 348 0.0 0.0 0.00 0.00 0.00 93 1012.4
20260502065416 11 348 0.0 0.0 0.00 0.00 0.00 93 1012.4
20260502064914 11 348 0.0 0.0 0.00 0.00 0.00 93 1012.8
20260502064411 11 348 0.0 0.0 0.00 0.00 0.00 92 1012.6
20260502063908 11 348 0.0 0.0 0.00 0.00 0.00 92
20260502063406 11 348 0.0 0.0 0.00 0.00 0.00 92
20260502062903 11 347 0.0 0.0 0.00 0.00 0.00 92
20260502062400 11 348 0.0 0.0 0.00 0.00 0.00 92
20260502061859 11 348 0.0 0.0 0.00 0.00 0.00 91
20260502061357 11 348 0.0 0.0 0.00 0.00 0.00 91
20260502060852 11 348 0.0 0.0 0.00 0.00 0.00 91
20260502060347 11 347 0.0 0.0 0.00 0.00 0.00 90
20260502055845 11 347 0.0 0.0 0.00 0.00 0.00 89
20260502055343 11 347 0.0 0.0 0.00 0.00 0.00 89 1013.5
20260502054842 11 357 0.0 0.0 0.00 0.00 0.00 89 1013.5
20260502054339 11 337 0.0 0.0 0.00 0.00 0.00 89
20260502053837 11 31 0.0 0.0 0.00 0.00 0.00 89
20260502053334 11 48 0.0 0.0 0.00 0.00 0.00 90
20260502052831 11 161 0.0 0.0 0.00 0.00 0.00 91 1012.6
20260502052329 11 162 0.0 0.0 0.00 0.00 0.00 91 1012.6
20260502051827 11 162 0.0 0.0 0.00 0.00 0.00 91 1012.7
20260502051326 11 162 0.0 0.0 0.00 0.00 0.00 91
20260502050821 11 162 0.0 0.0 0.00 0.00 0.00 91
20260502050318 11 162 0.0 0.0 0.00 0.00 0.00 91
20260502045815 11 162 0.0 0.0 0.00 0.00 0.00 91 1012.9
20260502045312 11 162 0.0 0.0 0.00 0.00 0.00 91 1012.9
20260502044809 11 162 0.0 0.0 0.00 0.00 0.00 90 1013.0
20260502044305 11 162 0.0 0.0 0.00 0.00 0.00 90 1012.9
20260502043802 11 162 0.0 0.0 0.00 0.00 0.00 90 1012.8
20260502043300 11 162 0.0 0.0 0.00 0.00 0.00 90 1012.9
20260502042759 11 162 0.0 0.0 0.00 0.00 0.00 90 1012.8
20260502042257 11 162 0.0 0.0 0.00 0.00 0.00 90 1013.0
20260502041754 11 162 0.0 0.0 0.00 0.00 0.00 91 1012.9
20260502041251 11 162 0.0 0.0 0.00 0.00 0.00 91
20260502040748 11 162 0.0 0.0 0.00 0.00 0.00 90
20260502040245 11 162 0.0 0.0 0.00 0.00 0.00 90 1013.0
20260502035741 11 162 0.0 0.0 0.00 0.00 0.00 90 1013.0
20260502035238 11 162 0.0 0.0 0.00 0.00 0.00 90 1013.1
20260502034736 11 162 0.0 0.0 0.00 0.00 0.00 90 1013.1
20260502034233 11 162 0.0 0.0 0.00 0.00 0.00 90 1013.2
20260502033731 11 162 0.0 0.0 0.00 0.00 0.00 90 1013.3
20260502033229 11 162 0.0 0.0 0.00 0.00 0.00 89 1013.3
20260502032725 11 162 0.0 0.0 0.00 0.00 0.00 89 1013.2
20260502032221 11 162 0.0 0.0 0.00 0.00 0.00 89 1013.1
20260502031720 11 162 0.0 0.0 0.00 0.00 0.00 89 1013.1
20260502031217 11 162 0.0 0.0 0.00 0.00 0.00 88
20260502030716 11 162 0.0 0.0 0.00 0.00 0.00 88 1013.1
20260502030214 12 162 0.0 0.0 0.00 0.00 0.00 88 1013.1
20260502025710 12 162 0.0 0.0 0.00 0.00 0.00 87
20260502025208 12 162 0.0 0.0 0.00 0.00 0.00 87 1013.3
20260502024706 12 162 0.0 0.0 0.00 0.00 0.00 86 1013.3
20260502024204 12 162 0.0 0.0 0.00 0.00 0.00 85 1013.2
20260502023701 12 162 0.0 0.0 0.00 0.00 0.00 85 1013.1
20260502023158 12 162 0.0 0.0 0.00 0.00 0.00 84 1013.3
20260502022655 12 162 0.0 0.0 0.00 0.00 0.00 85 1013.0
20260502022152 12 161 0.0 0.0 0.00 0.00 0.00 84 1013.1
20260502021649 12 161 0.0 0.0 0.00 0.00 0.00 84 1013.1
20260502021147 12 161 0.0 0.0 0.00 0.00 0.00 84 1013.2
20260502020644 13 146 0.0 0.0 0.00 0.00 0.00 84 1013.1
20260502020140 13 146 0.0 0.0 0.00 0.00 0.00 84 1012.9
20260502015639 13 145 0.0 0.0 0.00 0.00 0.00 84
20260502015134 13 145 0.0 0.0 0.00 0.00 0.00 83 1013.3
20260502014632 13 145 0.0 0.0 0.00 0.00 0.00 83 1013.3
20260502014129 13 145 0.0 0.0 0.00 0.00 0.00 83 1013.4
20260502013625 13 151 0.0 0.0 0.00 0.00 0.00 82 1013.4
20260502013121 13 151 0.0 0.0 0.00 0.00 0.00 81 1013.2
20260502012619 13 150 0.0 0.0 0.00 0.00 0.00 81 1013.2
20260502012116 13 150 0.0 0.0 0.00 0.00 0.00 80 1013.0
20260502011613 13 150 0.0 0.0 0.00 0.00 0.00 79 1013.0
20260502011108 13 151 0.0 0.0 0.00 0.00 0.00 80 1013.0
20260502010607 13 148 0.0 0.0 0.00 0.00 0.00 78 1013.1